Location: Luz Observatory
(34.5000°N, 117.2833°W)
Time: 02:53:47
(UTC-08:00)

Cosmos 1484 Rocket - Visible Passes

Search period start: 13 February 2016 00:00
Search period end: 23 February 2016 00:00
Orbit: 509 x 565 km, 97.4° (Epoch: 13 February)

Date Brightness Start Highest point End Pass type
(mag) Time Alt. Az. Time Alt. Az. Time Alt. Az.
13 Feb 3.1 18:05:05 10° SE 18:08:35 41° ENE 18:12:07 10° N visible
14 Feb 3.4 17:57:02 10° SE 18:00:21 32° ENE 18:03:43 10° N visible
14 Feb 6.1 19:33:19 10° WSW 19:34:56 12° W 19:36:34 10° WNW visible
15 Feb 5.8 19:24:17 10° SW 19:26:37 16° W 19:28:58 10° NW visible
16 Feb 5.4 19:15:30 10° SW 19:18:18 20° W 19:21:08 10° NW visible
17 Feb 5.0 19:06:51 10° SSW 19:09:59 26° W 19:13:10 10° NW visible
18 Feb 4.5 18:58:18 10° SSW 19:01:41 33° W 19:05:07 10° NNW visible
19 Feb 4.0 18:49:50 10° S 18:53:23 43° W 18:56:59 10° NNW visible
20 Feb 3.4 18:41:26 10° S 18:45:06 57° W 18:48:50 10° NNW visible
21 Feb 2.9 18:33:05 10° S 18:36:48 75° WSW 18:40:36 10° NNW visible
22 Feb 2.6 18:24:47 10° SSE 18:28:31 83° E 18:32:20 10° N visible
